Weather History for Grand Forks, ND

Change the Weather History Date:

Friday, May 10, 2013

  Actual Average Record
Temperature  
Mean Temperature 49 °F 53 °F  
Max Temperature 68 °F 66 °F 96 °F (1987)
Min Temperature 29 °F 39 °F 19 °F (1981)
Degree Days  
Heating Degree Days 16 13  
Month to date heating degree days 191 142  
Since 1 July heating degree days 9743 9220  
Cooling Degree Days 0 0  
Month to date cooling degree days 0 0  
Year to date cooling degree days 0 1  
Moisture  
Dew Point 32 °F    
Average Humidity 62    
Maximum Humidity 92    
Minimum Humidity 32    
Precipitation  
Precipitation 0.00 in 0.09 in 0.94 in (1999)
Month to date precipitation 0.00 0.73  
Year to date precipitation 3.38 3.77  
Snow  
Snow 0.00 in 0.00 in - ()
Month to date snowfall 0.0 0.1  
Since 1 July snowfall 50.2 47.4  
Snow Depth 0.00 in    
Sea Level Pressure  
Sea Level Pressure 30.04 in    
Wind  
Wind Speed 16 mph (West)    
Max Wind Speed 38 mph    
Max Gust Speed 47 mph    
Visibility 10 miles    
Events      
T = Trace of Precipitation, MM = Missing Value Source: NWS Daily Summary

Daily Weather History Graph

Daily Weather History Graph

Search for Another Location

Airport:

Trip Planner

Search our weather history database for the weather conditions in past years. The results will help you decide how hot, cold, wet, or windy it might be!

Date:

Astronomy

May. 10, 2013 Rise Set
Actual Time 5:56 AM CDT 8:54 PM CDT
Civil Twilight 5:20 AM CDT 9:30 PM CDT
Nautical Twilight 4:33 AM CDT 10:17 PM CDT
Astronomical Twilight 3:37 AM CDT 11:15 PM CDT
Moon 6:21 AM CDT (5/10) 9:46 PM CDT (5/10)
Length of Visible Light 16h 10m
Length of Day
14h 58m
New Moon, 0% of the Moon is Illuminated
May 10
New Moon
May 17
First Quarter
May 24
Full
May 31
Last Quarter
Jun 8
New

Hourly Weather History & Observations

Time (CDT) Temp. Windchill Dew Point Humidity Pressure Visibility Wind Dir Wind Speed Gust Speed Precip Events Conditions
12:53 AM 36.0 °F - 28.9 °F 76% 30.18 in 10.0 mi Calm Calm - N/A   Clear
1:53 AM 34.0 °F - 28.0 °F 79% 30.17 in 10.0 mi Calm Calm - N/A   Clear
2:53 AM 33.8 °F - 26.6 °F 75% 30.13 in 10.0 mi Calm Calm - N/A   Clear
3:53 AM 33.1 °F - 27.0 °F 78% 30.12 in 10.0 mi Calm Calm - N/A   Clear
4:53 AM 30.9 °F - 26.1 °F 82% 30.11 in 10.0 mi Calm Calm - N/A   Clear
5:53 AM 28.9 °F 22.8 °F 26.1 °F 89% 30.10 in 10.0 mi South 5.8 mph - N/A   Clear
6:53 AM 35.1 °F 28.6 °F 28.9 °F 78% 30.08 in 10.0 mi SSE 8.1 mph - N/A   Clear
7:53 AM 42.1 °F 34.9 °F 30.9 °F 65% 30.07 in 10.0 mi South 13.8 mph - N/A   Clear
8:53 AM 50.0 °F - 41.0 °F 71% 30.06 in 10.0 mi South 19.6 mph - N/A   Partly Cloudy
9:53 AM 54.0 °F - 42.1 °F 64% 30.04 in 10.0 mi SSW 18.4 mph 26.5 mph N/A   Scattered Clouds
10:53 AM 59.0 °F - 39.9 °F 49% 30.01 in 10.0 mi SW 20.7 mph 29.9 mph N/A   Scattered Clouds
11:53 AM 62.1 °F - 41.0 °F 46% 29.96 in 10.0 mi SSW 21.9 mph 29.9 mph N/A   Mostly Cloudy
12:53 PM 64.0 °F - 37.0 °F 37% 29.93 in 10.0 mi SSW 19.6 mph 26.5 mph N/A   Overcast
1:53 PM 66.0 °F - 35.1 °F 32% 29.90 in 10.0 mi SW 17.3 mph - N/A   Overcast
2:38 PM 66.2 °F - 37.4 °F 35% 29.87 in 10.0 mi WNW 21.9 mph 29.9 mph N/A   Overcast
2:53 PM 64.9 °F - 37.0 °F 36% 29.88 in 10.0 mi WNW 19.6 mph 26.5 mph N/A   Overcast
3:53 PM 66.0 °F - 39.0 °F 37% 29.89 in 10.0 mi North 24.2 mph 34.5 mph N/A   Scattered Clouds
4:53 PM 57.9 °F - 41.0 °F 53% 29.96 in 10.0 mi North 32.2 mph 43.7 mph N/A   Scattered Clouds
5:53 PM 55.9 °F - 37.0 °F 49% 29.99 in 10.0 mi North 31.1 mph 40.3 mph N/A   Partly Cloudy
6:53 PM 53.1 °F - 34.0 °F 48% 30.03 in 10.0 mi North 29.9 mph 44.9 mph N/A   Partly Cloudy
7:53 PM 48.9 °F - 24.1 °F 38% 30.05 in 10.0 mi North 27.6 mph 38.0 mph N/A   Clear
8:53 PM 46.0 °F 38.3 °F 23.0 °F 40% 30.07 in 10.0 mi North 20.7 mph - N/A   Clear
9:53 PM 41.0 °F 35.8 °F 26.1 °F 55% 30.10 in 10.0 mi NNW 8.1 mph - N/A   Clear
10:53 PM 39.9 °F 33.9 °F 26.1 °F 58% 30.12 in 10.0 mi NW 9.2 mph - N/A   Partly Cloudy
11:53 PM 41.0 °F 34.3 °F 26.1 °F 55% 30.14 in 10.0 mi NNW 11.5 mph - N/A   Overcast